Time,TemperatureF,DewpointF,PressureIn,WindDirection,WindDirectionDegrees,WindSpeedMPH,WindSpeedGustMPH,Humidity,HourlyPrecipIn,Conditions,Clouds,dailyrainin,SoftwareType,DateUTC
2013-08-12 00:02:00,76.0,67.5,29.67,North,0,0.0,0.0,75,0.00,,,0.00,WUHU216HW,2013-08-12 05:02:00,
2013-08-12 00:07:00,75.6,67.2,29.67,North,0,0.0,0.0,75,0.00,,,0.00,WUHU216HW,2013-08-12 05:07:00,
2013-08-12 00:12:00,75.6,67.2,29.67,North,0,0.0,0.0,75,0.00,,,0.00,WUHU216HW,2013-08-12 05:12:00,
2013-08-12 00:17:00,75.4,67.3,29.67,North,0,0.0,0.0,76,0.00,,,0.00,WUHU216HW,2013-08-12 05:17:00,
2013-08-12 00:22:00,75.2,67.1,29.67,North,0,0.0,0.0,76,0.00,,,0.00,WUHU216HW,2013-08-12 05:22:00,
2013-08-12 00:27:00,75.1,67.0,29.67,North,0,0.0,0.0,76,0.00,,,0.00,WUHU216HW,2013-08-12 05:27:00,
2013-08-12 00:32:00,74.9,67.2,29.67,North,0,0.0,0.0,77,0.00,,,0.00,WUHU216HW,2013-08-12 05:32:00,
2013-08-12 00:37:00,74.9,67.2,29.67,North,0,0.0,0.0,77,0.00,,,0.00,WUHU216HW,2013-08-12 05:37:00,
2013-08-12 00:42:00,74.7,67.1,29.67,North,0,0.0,0.0,77,0.00,,,0.00,WUHU216HW,2013-08-12 05:42:00,
2013-08-12 00:47:00,74.5,67.2,29.67,North,0,0.0,0.0,78,0.00,,,0.00,WUHU216HW,2013-08-12 05:47:00,
2013-08-12 00:52:00,74.5,67.2,29.67,North,0,0.0,0.0,78,0.00,,,0.00,WUHU216HW,2013-08-12 05:52:00,
2013-08-12 00:57:00,74.5,67.2,29.67,North,0,0.0,0.0,78,0.00,,,0.00,WUHU216HW,2013-08-12 05:57:00,
2013-08-12 01:02:00,74.5,67.2,29.67,North,0,0.0,0.0,78,0.00,,,0.00,WUHU216HW,2013-08-12 06:02:00,
2013-08-12 01:07:00,74.5,67.2,29.67,North,0,0.0,0.0,78,0.00,,,0.00,WUHU216HW,2013-08-12 06:07:00,
2013-08-12 01:12:00,74.3,67.1,29.67,North,0,0.0,0.0,78,0.00,,,0.00,WUHU216HW,2013-08-12 06:12:00,
2013-08-12 01:17:00,74.3,67.1,29.68,North,0,0.0,0.0,78,0.00,,,0.00,WUHU216HW,2013-08-12 06:17:00,
2013-08-12 01:22:00,74.2,66.9,29.69,North,0,0.0,0.0,78,0.00,,,0.00,WUHU216HW,2013-08-12 06:22:00,
2013-08-12 01:27:00,74.0,67.2,29.69,North,0,0.0,0.0,79,0.00,,,0.00,WUHU216HW,2013-08-12 06:27:00,
2013-08-12 01:32:00,74.0,67.2,29.69,North,0,0.0,0.0,79,0.00,,,0.00,WUHU216HW,2013-08-12 06:32:00,
2013-08-12 01:37:00,74.0,67.2,29.69,North,0,0.0,0.0,79,0.00,,,0.00,WUHU216HW,2013-08-12 06:37:00,
2013-08-12 01:42:00,74.3,67.1,29.68,North,0,0.0,0.0,78,0.00,,,0.00,WUHU216HW,2013-08-12 06:42:00,
2013-08-12 01:47:00,74.5,67.2,29.68,North,0,0.0,0.0,78,0.00,,,0.00,WUHU216HW,2013-08-12 06:47:00,
2013-08-12 01:52:00,74.5,67.2,29.68,North,0,0.0,0.0,78,0.00,,,0.00,WUHU216HW,2013-08-12 06:52:00,
2013-08-12 01:57:00,74.7,67.4,29.68,North,0,0.0,0.0,78,0.00,,,0.00,WUHU216HW,2013-08-12 06:57:00,
2013-08-12 02:02:00,74.5,67.2,29.68,North,0,0.0,0.0,78,0.00,,,0.00,WUHU216HW,2013-08-12 07:02:00,
2013-08-12 02:07:00,74.5,67.2,29.68,North,0,0.0,0.0,78,0.00,,,0.00,WUHU216HW,2013-08-12 07:07:00,
2013-08-12 02:12:00,74.3,67.1,29.68,North,0,0.0,0.0,78,0.00,,,0.00,WUHU216HW,2013-08-12 07:12:00,
2013-08-12 02:17:00,74.2,66.9,29.68,North,0,0.0,0.0,78,0.00,,,0.00,WUHU216HW,2013-08-12 07:17:00,
2013-08-12 02:22:00,74.0,66.7,29.68,North,0,0.0,0.0,78,0.00,,,0.00,WUHU216HW,2013-08-12 07:22:00,
2013-08-12 02:27:00,73.8,66.6,29.68,North,0,0.0,0.0,78,0.00,,,0.00,WUHU216HW,2013-08-12 07:27:00,
2013-08-12 02:32:00,73.8,66.6,29.68,North,0,0.0,0.0,78,0.00,,,0.00,WUHU216HW,2013-08-12 07:32:00,
2013-08-12 02:37:00,73.6,66.4,29.68,North,0,0.0,0.0,78,0.00,,,0.00,WUHU216HW,2013-08-12 07:37:00,
2013-08-12 02:42:00,73.6,66.4,29.68,North,0,0.0,0.0,78,0.00,,,0.00,WUHU216HW,2013-08-12 07:42:00,
2013-08-12 02:47:00,73.4,66.3,29.68,North,0,0.0,0.0,78,0.00,,,0.00,WUHU216HW,2013-08-12 07:47:00,
2013-08-12 02:52:00,73.4,66.3,29.69,North,0,0.0,0.0,78,0.00,,,0.00,WUHU216HW,2013-08-12 07:52:00,
2013-08-12 02:57:00,73.4,66.3,29.69,North,0,0.0,0.0,78,0.00,,,0.00,WUHU216HW,2013-08-12 07:57:00,
2013-08-12 03:02:00,73.3,66.1,29.68,North,0,0.0,0.0,78,0.00,,,0.00,WUHU216HW,2013-08-12 08:02:00,
2013-08-12 03:07:00,73.3,65.6,29.68,North,0,0.0,0.0,77,0.00,,,0.00,WUHU216HW,2013-08-12 08:07:00,
2013-08-12 03:12:00,72.9,65.3,29.68,North,0,0.0,0.0,77,0.00,,,0.00,WUHU216HW,2013-08-12 08:12:00,
2013-08-12 03:17:00,72.9,65.3,29.68,North,0,0.0,0.0,77,0.00,,,0.00,WUHU216HW,2013-08-12 08:17:00,
2013-08-12 03:22:00,72.7,65.1,29.68,North,0,0.0,0.0,77,0.00,,,0.00,WUHU216HW,2013-08-12 08:22:00,
2013-08-12 03:27:00,72.7,64.7,29.67,North,0,0.0,0.0,76,0.00,,,0.00,WUHU216HW,2013-08-12 08:27:00,
2013-08-12 03:32:00,72.5,64.5,29.67,North,0,0.0,0.0,76,0.00,,,0.00,WUHU216HW,2013-08-12 08:32:00,
2013-08-12 03:37:00,72.5,64.5,29.68,North,0,0.0,0.0,76,0.00,,,0.00,WUHU216HW,2013-08-12 08:37:00,
2013-08-12 03:42:00,72.5,64.5,29.67,North,0,0.0,0.0,76,0.00,,,0.00,WUHU216HW,2013-08-12 08:42:00,
2013-08-12 03:47:00,72.5,64.5,29.67,North,0,0.0,0.0,76,0.00,,,0.00,WUHU216HW,2013-08-12 08:47:00,
2013-08-12 03:52:00,72.5,64.5,29.68,North,0,0.0,0.0,76,0.00,,,0.00,WUHU216HW,2013-08-12 08:52:00,
2013-08-12 03:57:00,72.5,64.5,29.68,North,0,0.0,0.0,76,0.00,,,0.00,WUHU216HW,2013-08-12 08:57:00,
2013-08-12 04:02:00,72.5,64.5,29.69,North,0,0.0,0.0,76,0.00,,,0.00,WUHU216HW,2013-08-12 09:02:00,
2013-08-12 04:07:00,72.7,64.7,29.69,North,0,0.0,0.0,76,0.00,,,0.00,WUHU216HW,2013-08-12 09:07:00,
2013-08-12 04:12:00,72.7,64.7,29.69,North,0,0.0,0.0,76,0.00,,,0.00,WUHU216HW,2013-08-12 09:12:00,
2013-08-12 04:17:00,72.7,64.7,29.68,North,0,0.0,0.0,76,0.00,,,0.00,WUHU216HW,2013-08-12 09:17:00,
2013-08-12 04:22:00,72.7,65.1,29.68,North,0,0.0,0.0,77,0.00,,,0.00,WUHU216HW,2013-08-12 09:22:00,
2013-08-12 04:27:00,72.5,64.9,29.68,North,0,0.0,0.0,77,0.00,,,0.00,WUHU216HW,2013-08-12 09:27:00,
2013-08-12 04:32:00,72.5,64.9,29.68,North,0,0.0,0.0,77,0.00,,,0.00,WUHU216HW,2013-08-12 09:32:00,
2013-08-12 04:37:00,72.4,64.7,29.68,North,0,0.0,0.0,77,0.00,,,0.00,WUHU216HW,2013-08-12 09:37:00,
2013-08-12 04:42:00,72.4,64.7,29.68,North,0,0.0,0.0,77,0.00,,,0.00,WUHU216HW,2013-08-12 09:42:00,
2013-08-12 04:47:00,72.4,64.7,29.68,North,0,0.0,0.0,77,0.00,,,0.00,WUHU216HW,2013-08-12 09:47:00,
2013-08-12 04:52:00,72.4,64.7,29.68,North,0,0.0,0.0,77,0.00,,,0.00,WUHU216HW,2013-08-12 09:52:00,
2013-08-12 04:57:00,72.4,64.7,29.68,North,0,0.0,0.0,77,0.00,,,0.00,WUHU216HW,2013-08-12 09:57:00,
2013-08-12 05:02:00,72.4,64.7,29.67,North,0,0.0,0.0,77,0.00,,,0.00,WUHU216HW,2013-08-12 10:02:00,
2013-08-12 05:07:00,72.4,64.7,29.67,North,0,0.0,0.0,77,0.00,,,0.00,WUHU216HW,2013-08-12 10:07:00,
2013-08-12 05:12:00,72.4,64.7,29.67,North,0,0.0,0.0,77,0.00,,,0.00,WUHU216HW,2013-08-12 10:12:00,
2013-08-12 05:17:00,72.2,64.2,29.67,North,0,0.0,0.0,76,0.00,,,0.00,WUHU216HW,2013-08-12 10:17:00,
2013-08-12 05:22:00,72.2,64.5,29.66,North,0,0.0,0.0,77,0.00,,,0.00,WUHU216HW,2013-08-12 10:22:00,
2013-08-12 05:27:00,72.2,64.5,29.67,North,0,0.0,0.0,77,0.00,,,0.00,WUHU216HW,2013-08-12 10:27:00,
2013-08-12 05:32:00,72.2,64.5,29.67,North,0,0.0,0.0,77,0.00,,,0.00,WUHU216HW,2013-08-12 10:32:00,
2013-08-12 05:37:00,72.0,64.4,29.67,North,0,0.0,0.0,77,0.00,,,0.00,WUHU216HW,2013-08-12 10:37:00,
2013-08-12 05:42:00,72.0,64.4,29.68,North,0,0.0,0.0,77,0.00,,,0.00,WUHU216HW,2013-08-12 10:42:00,
2013-08-12 05:47:00,72.0,64.4,29.68,North,0,0.0,0.0,77,0.00,,,0.00,WUHU216HW,2013-08-12 10:47:00,
2013-08-12 05:52:00,72.0,64.4,29.68,North,0,0.0,0.0,77,0.00,,,0.00,WUHU216HW,2013-08-12 10:52:00,
2013-08-12 05:57:00,72.0,64.8,29.68,North,0,0.0,0.0,78,0.00,,,0.00,WUHU216HW,2013-08-12 10:57:00,
2013-08-12 06:02:00,72.0,64.4,29.68,North,0,0.0,0.0,77,0.00,,,0.00,WUHU216HW,2013-08-12 11:02:00,
2013-08-12 06:07:00,72.0,64.8,29.67,North,0,0.0,0.0,78,0.00,,,0.00,WUHU216HW,2013-08-12 11:07:00,
2013-08-12 06:12:00,72.0,64.8,29.66,North,0,0.0,0.0,78,0.00,,,0.00,WUHU216HW,2013-08-12 11:12:00,
2013-08-12 06:17:00,71.8,64.2,29.66,North,0,0.0,0.0,77,0.00,,,0.00,WUHU216HW,2013-08-12 11:17:00,
2013-08-12 06:22:00,71.8,64.6,29.67,North,0,0.0,0.0,78,0.00,,,0.00,WUHU216HW,2013-08-12 11:22:00,
2013-08-12 06:27:00,71.8,64.6,29.67,North,0,0.0,0.0,78,0.00,,,0.00,WUHU216HW,2013-08-12 11:27:00,
2013-08-12 06:32:00,71.6,64.5,29.67,North,0,0.0,0.0,78,0.00,,,0.00,WUHU216HW,2013-08-12 11:32:00,
2013-08-12 06:37:00,71.6,64.5,29.67,North,0,0.0,0.0,78,0.00,,,0.00,WUHU216HW,2013-08-12 11:37:00,
2013-08-12 06:42:00,71.5,64.6,29.67,North,0,0.0,0.0,79,0.00,,,0.00,WUHU216HW,2013-08-12 11:42:00,
2013-08-12 06:47:00,71.3,64.5,29.67,North,0,0.0,0.0,79,0.00,,,0.00,WUHU216HW,2013-08-12 11:47:00,
2013-08-12 06:52:00,71.3,64.5,29.67,North,0,0.0,0.0,79,0.00,,,0.00,WUHU216HW,2013-08-12 11:52:00,
2013-08-12 06:57:00,70.9,64.1,29.67,North,0,0.0,0.0,79,0.00,,,0.00,WUHU216HW,2013-08-12 11:57:00,
2013-08-12 07:02:00,70.9,64.1,29.67,North,0,0.0,0.0,79,0.00,,,0.00,WUHU216HW,2013-08-12 12:02:00,
2013-08-12 07:07:00,70.9,64.1,29.67,North,0,0.0,0.0,79,0.00,,,0.00,WUHU216HW,2013-08-12 12:07:00,
2013-08-12 07:12:00,70.9,64.1,29.67,North,0,0.0,0.0,79,0.00,,,0.00,WUHU216HW,2013-08-12 12:12:00,
2013-08-12 07:17:00,70.9,64.1,29.67,North,0,0.0,0.0,79,0.00,,,0.00,WUHU216HW,2013-08-12 12:17:00,
2013-08-12 07:22:00,70.9,64.1,29.67,North,0,0.0,0.0,79,0.00,,,0.00,WUHU216HW,2013-08-12 12:22:00,
2013-08-12 07:27:00,70.9,64.1,29.67,North,0,0.0,0.0,79,0.00,,,0.00,WUHU216HW,2013-08-12 12:27:00,
2013-08-12 07:32:00,70.9,64.4,29.67,North,0,0.0,0.0,80,0.00,,,0.00,WUHU216HW,2013-08-12 12:32:00,
2013-08-12 07:37:00,70.9,64.4,29.67,North,0,0.0,0.0,80,0.00,,,0.00,WUHU216HW,2013-08-12 12:37:00,
2013-08-12 07:42:00,71.1,64.6,29.68,North,0,0.0,0.0,80,0.00,,,0.00,WUHU216HW,2013-08-12 12:42:00,
2013-08-12 07:47:00,71.3,64.8,29.68,North,0,0.0,0.0,80,0.00,,,0.00,WUHU216HW,2013-08-12 12:47:00,
2013-08-12 07:52:00,71.3,64.8,29.68,North,0,0.0,0.0,80,0.00,,,0.00,WUHU216HW,2013-08-12 12:52:00,
2013-08-12 07:57:00,71.6,65.2,29.68,North,0,0.0,0.0,80,0.00,,,0.00,WUHU216HW,2013-08-12 12:57:00,
2013-08-12 08:02:00,71.6,64.8,29.68,North,0,0.0,0.0,79,0.00,,,0.00,WUHU216HW,2013-08-12 13:02:00,
2013-08-12 08:07:00,71.8,65.0,29.68,North,0,0.0,0.0,79,0.00,,,0.00,WUHU216HW,2013-08-12 13:07:00,
2013-08-12 08:12:00,71.6,64.8,29.68,North,0,0.0,0.0,79,0.00,,,0.00,WUHU216HW,2013-08-12 13:12:00,
2013-08-12 08:17:00,71.6,64.8,29.68,North,0,0.0,0.0,79,0.00,,,0.00,WUHU216HW,2013-08-12 13:17:00,
2013-08-12 08:22:00,71.6,64.8,29.69,North,0,0.0,0.0,79,0.00,,,0.00,WUHU216HW,2013-08-12 13:22:00,
2013-08-12 08:27:00,71.8,65.0,29.69,North,0,0.0,0.0,79,0.00,,,0.00,WUHU216HW,2013-08-12 13:27:00,
2013-08-12 08:32:00,71.8,65.3,29.69,North,0,0.0,0.0,80,0.00,,,0.00,WUHU216HW,2013-08-12 13:32:00,
2013-08-12 08:37:00,71.6,65.2,29.69,North,0,0.0,0.0,80,0.00,,,0.00,WUHU216HW,2013-08-12 13:37:00,
2013-08-12 08:42:00,71.6,65.2,29.70,North,0,0.0,0.0,80,0.00,,,0.00,WUHU216HW,2013-08-12 13:42:00,
2013-08-12 08:47:00,71.6,65.2,29.70,North,0,0.0,0.0,80,0.00,,,0.00,WUHU216HW,2013-08-12 13:47:00,
2013-08-12 08:52:00,71.6,65.2,29.70,North,0,0.0,0.0,80,0.00,,,0.00,WUHU216HW,2013-08-12 13:52:00,
2013-08-12 08:57:00,71.8,65.3,29.70,North,0,0.0,0.0,80,0.00,,,0.00,WUHU216HW,2013-08-12 13:57:00,
2013-08-12 09:02:00,72.2,65.7,29.70,North,0,0.0,0.0,80,0.00,,,0.00,WUHU216HW,2013-08-12 14:02:00,
2013-08-12 09:07:00,72.9,66.8,29.70,North,0,0.0,0.0,81,0.00,,,0.00,WUHU216HW,2013-08-12 14:07:00,
2013-08-12 09:12:00,73.4,67.0,29.70,North,0,0.0,0.0,80,0.00,,,0.00,WUHU216HW,2013-08-12 14:12:00,
2013-08-12 09:17:00,73.6,66.8,29.70,North,0,0.0,0.0,79,0.00,,,0.00,WUHU216HW,2013-08-12 14:17:00,
2013-08-12 09:22:00,74.2,67.3,29.70,North,0,0.0,0.0,79,0.00,,,0.00,WUHU216HW,2013-08-12 14:22:00,
2013-08-12 09:27:00,74.5,67.7,29.70,North,0,0.0,0.0,79,0.00,,,0.00,WUHU216HW,2013-08-12 14:27:00,
2013-08-12 09:32:00,74.9,68.1,29.70,North,0,0.0,0.0,79,0.00,,,0.00,WUHU216HW,2013-08-12 14:32:00,
2013-08-12 09:37:00,75.6,68.3,29.70,North,0,0.0,0.0,78,0.00,,,0.00,WUHU216HW,2013-08-12 14:37:00,
2013-08-12 09:42:00,75.8,68.0,29.70,North,0,0.0,0.0,77,0.00,,,0.00,WUHU216HW,2013-08-12 14:42:00,
2013-08-12 09:47:00,76.0,68.2,29.70,North,0,0.0,0.0,77,0.00,,,0.00,WUHU216HW,2013-08-12 14:47:00,
2013-08-12 09:52:00,76.1,68.1,29.71,North,0,0.0,0.0,76,0.00,,,0.00,WUHU216HW,2013-08-12 14:52:00,
2013-08-12 09:57:00,76.3,68.2,29.71,North,0,0.0,0.0,76,0.00,,,0.00,WUHU216HW,2013-08-12 14:57:00,
2013-08-12 10:02:00,76.9,68.7,29.71,North,0,0.0,0.0,76,0.00,,,0.00,WUHU216HW,2013-08-12 15:02:00,
2013-08-12 10:07:00,76.7,67.4,29.71,North,0,0.0,0.0,73,0.00,,,0.00,WUHU216HW,2013-08-12 15:07:00,
2013-08-12 10:12:00,76.7,67.8,29.71,North,0,0.0,0.0,74,0.00,,,0.00,WUHU216HW,2013-08-12 15:12:00,
2013-08-12 10:17:00,76.3,67.8,29.71,North,0,0.0,0.0,75,0.00,,,0.00,WUHU216HW,2013-08-12 15:17:00,
2013-08-12 10:22:00,76.3,67.8,29.71,North,0,0.0,0.0,75,0.00,,,0.00,WUHU216HW,2013-08-12 15:22:00,
2013-08-12 10:27:00,76.3,67.8,29.71,North,0,0.0,0.0,75,0.00,,,0.00,WUHU216HW,2013-08-12 15:27:00,
2013-08-12 10:32:00,76.7,68.1,29.71,North,0,0.0,0.0,75,0.00,,,0.00,WUHU216HW,2013-08-12 15:32:00,
2013-08-12 10:37:00,76.9,68.0,29.71,North,0,0.0,0.0,74,0.00,,,0.00,WUHU216HW,2013-08-12 15:37:00,
2013-08-12 10:42:00,76.9,68.0,29.71,North,0,0.0,0.0,74,0.00,,,0.00,WUHU216HW,2013-08-12 15:42:00,
2013-08-12 10:47:00,77.0,67.3,29.71,North,0,0.0,0.0,72,0.00,,,0.00,WUHU216HW,2013-08-12 15:47:00,
2013-08-12 10:52:00,77.4,68.0,29.71,North,0,0.0,0.0,73,0.00,,,0.00,WUHU216HW,2013-08-12 15:52:00,
2013-08-12 10:57:00,77.8,68.4,29.72,North,0,0.0,0.0,73,0.00,,,0.00,WUHU216HW,2013-08-12 15:57:00,
2013-08-12 11:02:00,78.1,68.0,29.72,North,0,0.0,0.0,71,0.00,,,0.00,WUHU216HW,2013-08-12 16:02:00,
2013-08-12 11:07:00,78.1,68.0,29.72,North,0,0.0,0.0,71,0.00,,,0.00,WUHU216HW,2013-08-12 16:07:00,
2013-08-12 11:12:00,78.1,68.0,29.72,North,0,0.0,0.0,71,0.00,,,0.00,WUHU216HW,2013-08-12 16:12:00,
2013-08-12 11:17:00,78.3,68.1,29.71,North,0,0.0,0.0,71,0.00,,,0.00,WUHU216HW,2013-08-12 16:17:00,
2013-08-12 11:22:00,78.7,68.5,29.71,North,0,0.0,0.0,71,0.00,,,0.00,WUHU216HW,2013-08-12 16:22:00,
2013-08-12 11:27:00,78.8,68.2,29.71,North,0,0.0,0.0,70,0.00,,,0.00,WUHU216HW,2013-08-12 16:27:00,
2013-08-12 11:32:00,78.8,68.2,29.71,North,0,0.0,0.0,70,0.00,,,0.00,WUHU216HW,2013-08-12 16:32:00,
2013-08-12 11:37:00,79.0,68.4,29.71,North,0,0.0,0.0,70,0.00,,,0.00,WUHU216HW,2013-08-12 16:37:00,
2013-08-12 11:42:00,79.0,68.4,29.71,North,0,0.0,0.0,70,0.00,,,0.00,WUHU216HW,2013-08-12 16:42:00,
2013-08-12 11:48:00,79.2,67.7,29.71,North,0,0.0,0.0,68,0.00,,,0.00,WUHU216HW,2013-08-12 16:48:00,
2013-08-12 11:53:00,79.2,68.1,29.71,North,0,0.0,0.0,69,0.00,,,0.00,WUHU216HW,2013-08-12 16:53:00,
2013-08-12 11:58:00,79.7,68.7,29.72,North,0,0.0,0.0,69,0.00,,,0.00,WUHU216HW,2013-08-12 16:58:00,
2013-08-12 12:03:00,79.9,68.0,29.71,North,0,0.0,0.0,67,0.00,,,0.00,WUHU216HW,2013-08-12 17:03:00,
2013-08-12 12:08:00,80.1,67.7,29.72,North,0,0.0,0.0,66,0.00,,,0.00,WUHU216HW,2013-08-12 17:08:00,
2013-08-12 12:13:00,80.5,68.0,29.71,North,0,0.0,0.0,66,0.00,,,0.00,WUHU216HW,2013-08-12 17:13:00,
2013-08-12 12:18:00,80.6,67.8,29.72,North,0,0.0,0.0,65,0.00,,,0.00,WUHU216HW,2013-08-12 17:18:00,
2013-08-12 12:23:00,81.0,67.7,29.71,North,0,0.0,0.0,64,0.00,,,0.00,WUHU216HW,2013-08-12 17:23:00,
2013-08-12 12:28:00,81.4,68.4,29.71,North,0,0.0,0.0,65,0.00,,,0.00,WUHU216HW,2013-08-12 17:28:00,
2013-08-12 12:33:00,81.5,68.1,29.71,North,0,0.0,0.0,64,0.00,,,0.00,WUHU216HW,2013-08-12 17:33:00,
2013-08-12 12:38:00,81.5,68.1,29.71,North,0,0.0,0.0,64,0.00,,,0.00,WUHU216HW,2013-08-12 17:38:00,
2013-08-12 12:43:00,81.7,67.4,29.71,North,0,0.0,0.0,62,0.00,,,0.00,WUHU216HW,2013-08-12 17:43:00,
2013-08-12 12:48:00,81.7,67.4,29.71,North,0,0.0,0.0,62,0.00,,,0.00,WUHU216HW,2013-08-12 17:48:00,
2013-08-12 12:53:00,81.7,67.4,29.71,North,0,0.0,0.0,62,0.00,,,0.00,WUHU216HW,2013-08-12 17:53:00,
2013-08-12 12:58:00,82.1,66.8,29.71,North,0,0.0,0.0,60,0.00,,,0.00,WUHU216HW,2013-08-12 17:58:00,
2013-08-12 13:03:00,82.1,66.8,29.71,North,0,0.0,0.0,60,0.00,,,0.00,WUHU216HW,2013-08-12 18:03:00,
2013-08-12 13:08:00,82.3,67.4,29.71,North,0,0.0,0.0,61,0.00,,,0.00,WUHU216HW,2013-08-12 18:08:00,
2013-08-12 13:13:00,82.4,67.1,29.70,North,0,0.0,0.0,60,0.00,,,0.00,WUHU216HW,2013-08-12 18:13:00,
2013-08-12 13:18:00,82.4,65.1,29.71,North,0,0.0,0.0,56,0.00,,,0.00,WUHU216HW,2013-08-12 18:18:00,
2013-08-12 13:23:00,82.4,66.1,29.71,North,0,0.0,0.0,58,0.00,,,0.00,WUHU216HW,2013-08-12 18:23:00,
2013-08-12 13:28:00,82.6,66.2,29.70,North,0,0.0,0.0,58,0.00,,,0.00,WUHU216HW,2013-08-12 18:28:00,
2013-08-12 13:33:00,82.6,66.2,29.71,North,0,0.0,0.0,58,0.00,,,0.00,WUHU216HW,2013-08-12 18:33:00,
2013-08-12 13:38:00,82.6,66.8,29.70,North,0,0.0,0.0,59,0.00,,,0.00,WUHU216HW,2013-08-12 18:38:00,
2013-08-12 13:43:00,82.6,66.2,29.70,North,0,0.0,0.0,58,0.00,,,0.00,WUHU216HW,2013-08-12 18:43:00,
2013-08-12 13:48:00,83.0,66.2,29.70,North,0,0.0,0.0,57,0.00,,,0.00,WUHU216HW,2013-08-12 18:48:00,
2013-08-12 13:53:00,83.0,65.1,29.70,North,0,0.0,0.0,55,0.00,,,0.00,WUHU216HW,2013-08-12 18:53:00,
2013-08-12 13:58:00,83.2,65.8,29.70,North,0,0.0,0.0,56,0.00,,,0.00,WUHU216HW,2013-08-12 18:58:00,
2013-08-12 14:03:00,83.0,64.0,29.70,North,0,0.0,0.0,53,0.00,,,0.00,WUHU216HW,2013-08-12 19:03:00,
2013-08-12 14:08:00,82.6,63.6,29.70,North,0,0.0,0.0,53,0.00,,,0.00,WUHU216HW,2013-08-12 19:08:00,
2013-08-12 14:13:00,82.6,64.2,29.70,North,0,0.0,0.0,54,0.00,,,0.00,WUHU216HW,2013-08-12 19:13:00,
2013-08-12 14:18:00,82.8,64.4,29.70,North,0,0.0,0.0,54,0.00,,,0.00,WUHU216HW,2013-08-12 19:18:00,
2013-08-12 14:23:00,83.2,65.3,29.70,North,0,0.0,0.0,55,0.00,,,0.00,WUHU216HW,2013-08-12 19:23:00,
2013-08-12 14:28:00,83.3,64.9,29.69,North,0,0.0,0.0,54,0.00,,,0.00,WUHU216HW,2013-08-12 19:28:00,
2013-08-12 14:33:00,83.5,65.1,29.70,North,0,0.0,0.0,54,0.00,,,0.00,WUHU216HW,2013-08-12 19:33:00,
2013-08-12 14:38:00,83.5,64.1,29.69,North,0,0.0,0.0,52,0.00,,,0.00,WUHU216HW,2013-08-12 19:38:00,
2013-08-12 14:43:00,83.5,63.0,29.69,North,0,0.0,0.0,50,0.00,,,0.00,WUHU216HW,2013-08-12 19:43:00,
2013-08-12 14:48:00,83.3,62.2,29.69,North,0,0.0,0.0,49,0.00,,,0.00,WUHU216HW,2013-08-12 19:48:00,
2013-08-12 14:53:00,83.2,61.4,29.69,North,0,0.0,0.0,48,0.00,,,0.00,WUHU216HW,2013-08-12 19:53:00,
2013-08-12 14:58:00,83.0,61.8,29.69,North,0,0.0,0.0,49,0.00,,,0.00,WUHU216HW,2013-08-12 19:58:00,
2013-08-12 15:03:00,83.0,62.5,29.68,North,0,0.0,0.0,50,0.00,,,0.00,WUHU216HW,2013-08-12 20:03:00,
2013-08-12 15:08:00,83.0,62.5,29.68,North,0,0.0,0.0,50,0.00,,,0.00,WUHU216HW,2013-08-12 20:08:00,
2013-08-12 15:13:00,83.2,62.6,29.68,North,0,0.0,0.0,50,0.00,,,0.00,WUHU216HW,2013-08-12 20:13:00,
2013-08-12 15:18:00,83.0,62.5,29.68,North,0,0.0,0.0,50,0.00,,,0.00,WUHU216HW,2013-08-12 20:18:00,
2013-08-12 15:23:00,83.2,62.6,29.68,North,0,0.0,0.0,50,0.00,,,0.00,WUHU216HW,2013-08-12 20:23:00,
2013-08-12 15:28:00,83.2,60.8,29.68,North,0,0.0,0.0,47,0.00,,,0.00,WUHU216HW,2013-08-12 20:28:00,
2013-08-12 15:33:00,83.0,60.6,29.68,North,0,0.0,0.0,47,0.00,,,0.00,WUHU216HW,2013-08-12 20:33:00,
2013-08-12 15:38:00,83.0,60.6,29.68,North,0,0.0,0.0,47,0.00,,,0.00,WUHU216HW,2013-08-12 20:38:00,
2013-08-12 15:48:00,83.0,61.2,29.68,North,0,0.0,0.0,48,0.00,,,0.00,WUHU216HW,2013-08-12 20:48:00,
2013-08-12 15:53:00,83.0,60.6,29.68,North,0,0.0,0.0,47,0.00,,,0.00,WUHU216HW,2013-08-12 20:53:00,
2013-08-12 15:58:00,83.2,61.4,29.68,North,0,0.0,0.0,48,0.00,,,0.00,WUHU216HW,2013-08-12 20:58:00,
2013-08-12 16:03:00,83.3,61.6,29.68,North,0,0.0,0.0,48,0.00,,,0.00,WUHU216HW,2013-08-12 21:03:00,
2013-08-12 16:08:00,83.5,60.5,29.68,North,0,0.0,0.0,46,0.00,,,0.00,WUHU216HW,2013-08-12 21:08:00,
2013-08-12 16:13:00,83.7,61.3,29.68,North,0,0.0,0.0,47,0.00,,,0.00,WUHU216HW,2013-08-12 21:13:00,
2013-08-12 16:18:00,83.3,59.1,29.68,North,0,0.0,0.0,44,0.00,,,0.00,WUHU216HW,2013-08-12 21:18:00,
2013-08-12 16:23:00,83.2,60.1,29.68,North,0,0.0,0.0,46,0.00,,,0.00,WUHU216HW,2013-08-12 21:23:00,
2013-08-12 16:28:00,83.2,59.0,29.68,North,0,0.0,0.0,44,0.00,,,0.00,WUHU216HW,2013-08-12 21:28:00,
2013-08-12 16:33:00,83.2,59.6,29.68,North,0,0.0,0.0,45,0.00,,,0.00,WUHU216HW,2013-08-12 21:33:00,
2013-08-12 16:38:00,83.2,59.6,29.68,North,0,0.0,0.0,45,0.00,,,0.00,WUHU216HW,2013-08-12 21:38:00,
2013-08-12 16:43:00,83.2,59.6,29.68,North,0,0.0,0.0,45,0.00,,,0.00,WUHU216HW,2013-08-12 21:43:00,
2013-08-12 16:48:00,83.2,59.6,29.68,North,0,0.0,0.0,45,0.00,,,0.00,WUHU216HW,2013-08-12 21:48:00,
2013-08-12 16:53:00,83.5,59.9,29.68,North,0,0.0,0.0,45,0.00,,,0.00,WUHU216HW,2013-08-12 21:53:00,
2013-08-12 16:58:00,83.5,59.9,29.68,North,0,0.0,0.0,45,0.00,,,0.00,WUHU216HW,2013-08-12 21:58:00,
2013-08-12 17:03:00,83.5,60.5,29.69,North,0,0.0,0.0,46,0.00,,,0.00,WUHU216HW,2013-08-12 22:03:00,
2013-08-12 17:08:00,83.5,60.5,29.69,North,0,0.0,0.0,46,0.00,,,0.00,WUHU216HW,2013-08-12 22:08:00,
2013-08-12 17:13:00,83.5,61.1,29.69,North,0,0.0,0.0,47,0.00,,,0.00,WUHU216HW,2013-08-12 22:13:00,
2013-08-12 17:18:00,83.3,60.9,29.68,North,0,0.0,0.0,47,0.00,,,0.00,WUHU216HW,2013-08-12 22:18:00,
2013-08-12 17:23:00,83.5,61.1,29.68,North,0,0.0,0.0,47,0.00,,,0.00,WUHU216HW,2013-08-12 22:23:00,
2013-08-12 17:28:00,83.3,60.9,29.68,North,0,0.0,0.0,47,0.00,,,0.00,WUHU216HW,2013-08-12 22:28:00,
2013-08-12 17:33:00,83.3,61.6,29.69,North,0,0.0,0.0,48,0.00,,,0.00,WUHU216HW,2013-08-12 22:33:00,
2013-08-12 17:38:00,83.3,61.6,29.68,North,0,0.0,0.0,48,0.00,,,0.00,WUHU216HW,2013-08-12 22:38:00,
2013-08-12 17:43:00,83.5,61.1,29.68,North,0,0.0,0.0,47,0.00,,,0.00,WUHU216HW,2013-08-12 22:43:00,
2013-08-12 17:48:00,83.5,61.1,29.68,North,0,0.0,0.0,47,0.00,,,0.00,WUHU216HW,2013-08-12 22:48:00,
2013-08-12 17:53:00,83.3,60.9,29.68,North,0,0.0,0.0,47,0.00,,,0.00,WUHU216HW,2013-08-12 22:53:00,
2013-08-12 17:58:00,83.2,61.4,29.68,North,0,0.0,0.0,48,0.00,,,0.00,WUHU216HW,2013-08-12 22:58:00,
2013-08-12 18:03:00,83.0,61.2,29.68,North,0,0.0,0.0,48,0.00,,,0.00,WUHU216HW,2013-08-12 23:03:00,
2013-08-12 18:08:00,82.8,61.0,29.68,North,0,0.0,0.0,48,0.00,,,0.00,WUHU216HW,2013-08-12 23:08:00,
2013-08-12 18:13:00,82.6,60.8,29.68,North,0,0.0,0.0,48,0.00,,,0.00,WUHU216HW,2013-08-12 23:13:00,
2013-08-12 18:18:00,82.4,61.3,29.68,North,0,0.0,0.0,49,0.00,,,0.00,WUHU216HW,2013-08-12 23:18:00,
2013-08-12 18:23:00,82.4,61.3,29.68,North,0,0.0,0.0,49,0.00,,,0.00,WUHU216HW,2013-08-12 23:23:00,
2013-08-12 18:28:00,82.3,61.1,29.68,North,0,0.0,0.0,49,0.00,,,0.00,WUHU216HW,2013-08-12 23:28:00,
2013-08-12 18:33:00,82.3,61.7,29.68,North,0,0.0,0.0,50,0.00,,,0.00,WUHU216HW,2013-08-12 23:33:00,
2013-08-12 18:38:00,82.3,61.7,29.68,North,0,0.0,0.0,50,0.00,,,0.00,WUHU216HW,2013-08-12 23:38:00,
2013-08-12 18:43:00,82.1,61.6,29.68,North,0,0.0,0.0,50,0.00,,,0.00,WUHU216HW,2013-08-12 23:43:00,
2013-08-12 18:48:00,82.1,61.6,29.68,North,0,0.0,0.0,50,0.00,,,0.00,WUHU216HW,2013-08-12 23:48:00,
2013-08-12 18:53:00,81.9,61.5,29.68,North,0,0.0,0.0,50,0.00,,,0.00,WUHU216HW,2013-08-12 23:53:00,
2013-08-12 18:58:00,81.9,61.5,29.68,North,0,0.0,0.0,50,0.00,,,0.00,WUHU216HW,2013-08-12 23:58:00,
2013-08-12 19:03:00,81.7,61.3,29.68,North,0,0.0,0.0,50,0.00,,,0.00,WUHU216HW,2013-08-13 00:03:00,
2013-08-12 19:08:00,81.7,60.7,29.68,North,0,0.0,0.0,49,0.00,,,0.00,WUHU216HW,2013-08-13 00:08:00,
2013-08-12 19:13:00,81.7,61.3,29.68,North,0,0.0,0.0,50,0.00,,,0.00,WUHU216HW,2013-08-13 00:13:00,
2013-08-12 19:18:00,81.7,61.3,29.68,North,0,0.0,0.0,50,0.00,,,0.00,WUHU216HW,2013-08-13 00:18:00,
2013-08-12 19:23:00,81.4,60.3,29.68,North,0,0.0,0.0,49,0.00,,,0.00,WUHU216HW,2013-08-13 00:23:00,
2013-08-12 19:28:00,81.2,60.2,29.67,North,0,0.0,0.0,49,0.00,,,0.00,WUHU216HW,2013-08-13 00:28:00,
2013-08-12 19:33:00,81.0,60.7,29.68,North,0,0.0,0.0,50,0.00,,,0.00,WUHU216HW,2013-08-13 00:33:00,
2013-08-12 19:38:00,80.8,60.5,29.67,North,0,0.0,0.0,50,0.00,,,0.00,WUHU216HW,2013-08-13 00:38:00,
2013-08-12 19:43:00,80.6,60.3,29.67,North,0,0.0,0.0,50,0.00,,,0.00,WUHU216HW,2013-08-13 00:43:00,
2013-08-12 19:48:00,80.5,60.1,29.67,North,0,0.0,0.0,50,0.00,,,0.00,WUHU216HW,2013-08-13 00:48:00,
2013-08-12 19:53:00,80.3,59.9,29.67,North,0,0.0,0.0,50,0.00,,,0.00,WUHU216HW,2013-08-13 00:53:00,
2013-08-12 19:58:00,80.1,60.3,29.68,North,0,0.0,0.0,51,0.00,,,0.00,WUHU216HW,2013-08-13 00:58:00,
2013-08-12 20:03:00,79.9,60.2,29.67,North,0,0.0,0.0,51,0.00,,,0.00,WUHU216HW,2013-08-13 01:03:00,
2013-08-12 20:08:00,79.7,60.6,29.68,North,0,0.0,0.0,52,0.00,,,0.00,WUHU216HW,2013-08-13 01:08:00,
2013-08-12 20:13:00,79.6,60.4,29.68,North,0,0.0,0.0,52,0.00,,,0.00,WUHU216HW,2013-08-13 01:13:00,
2013-08-12 20:18:00,79.4,60.2,29.68,North,0,0.0,0.0,52,0.00,,,0.00,WUHU216HW,2013-08-13 01:18:00,
2013-08-12 20:23:00,79.4,60.2,29.68,North,0,0.0,0.0,52,0.00,,,0.00,WUHU216HW,2013-08-13 01:23:00,
2013-08-12 20:28:00,79.4,60.2,29.68,North,0,0.0,0.0,52,0.00,,,0.00,WUHU216HW,2013-08-13 01:28:00,
2013-08-12 20:33:00,79.2,60.0,29.68,North,0,0.0,0.0,52,0.00,,,0.00,WUHU216HW,2013-08-13 01:33:00,
2013-08-12 20:38:00,79.2,60.6,29.68,North,0,0.0,0.0,53,0.00,,,0.00,WUHU216HW,2013-08-13 01:38:00,
2013-08-12 20:43:00,78.8,60.2,29.69,North,0,0.0,0.0,53,0.00,,,0.00,WUHU216HW,2013-08-13 01:43:00,
2013-08-12 20:48:00,78.7,60.1,29.69,North,0,0.0,0.0,53,0.00,,,0.00,WUHU216HW,2013-08-13 01:48:00,
2013-08-12 20:53:00,78.5,60.0,29.69,North,0,0.0,0.0,53,0.00,,,0.00,WUHU216HW,2013-08-13 01:53:00,
2013-08-12 20:58:00,78.3,60.3,29.70,North,0,0.0,0.0,54,0.00,,,0.00,WUHU216HW,2013-08-13 01:58:00,
2013-08-12 21:03:00,78.1,60.1,29.70,North,0,0.0,0.0,54,0.00,,,0.00,WUHU216HW,2013-08-13 02:03:00,
2013-08-12 21:08:00,77.9,60.0,29.70,North,0,0.0,0.0,54,0.00,,,0.00,WUHU216HW,2013-08-13 02:08:00,
2013-08-12 21:13:00,77.9,60.5,29.71,North,0,0.0,0.0,55,0.00,,,0.00,WUHU216HW,2013-08-13 02:13:00,
2013-08-12 21:18:00,77.9,60.5,29.71,North,0,0.0,0.0,55,0.00,,,0.00,WUHU216HW,2013-08-13 02:18:00,
2013-08-12 21:23:00,77.8,60.3,29.71,North,0,0.0,0.0,55,0.00,,,0.00,WUHU216HW,2013-08-13 02:23:00,
2013-08-12 21:28:00,77.6,60.1,29.71,North,0,0.0,0.0,55,0.00,,,0.00,WUHU216HW,2013-08-13 02:28:00,
2013-08-12 21:33:00,77.4,60.4,29.72,North,0,0.0,0.0,56,0.00,,,0.00,WUHU216HW,2013-08-13 02:33:00,
2013-08-12 21:38:00,77.2,60.3,29.72,North,0,0.0,0.0,56,0.00,,,0.00,WUHU216HW,2013-08-13 02:38:00,
2013-08-12 21:43:00,77.0,60.6,29.72,North,0,0.0,0.0,57,0.00,,,0.00,WUHU216HW,2013-08-13 02:43:00,
2013-08-12 21:48:00,77.0,60.6,29.73,North,0,0.0,0.0,57,0.00,,,0.00,WUHU216HW,2013-08-13 02:48:00,
2013-08-12 21:53:00,76.7,60.8,29.73,North,0,0.0,0.0,58,0.00,,,0.00,WUHU216HW,2013-08-13 02:53:00,
2013-08-12 21:58:00,76.7,60.8,29.73,North,0,0.0,0.0,58,0.00,,,0.00,WUHU216HW,2013-08-13 02:58:00,
2013-08-12 22:03:00,76.5,60.6,29.73,North,0,0.0,0.0,58,0.00,,,0.00,WUHU216HW,2013-08-13 03:03:00,
2013-08-12 22:08:00,76.5,61.1,29.73,North,0,0.0,0.0,59,0.00,,,0.00,WUHU216HW,2013-08-13 03:08:00,
2013-08-12 22:13:00,76.3,60.9,29.73,North,0,0.0,0.0,59,0.00,,,0.00,WUHU216HW,2013-08-13 03:13:00,
2013-08-12 22:18:00,76.0,60.7,29.73,North,0,0.0,0.0,59,0.00,,,0.00,WUHU216HW,2013-08-13 03:18:00,
2013-08-12 22:28:00,75.8,60.9,29.74,North,0,0.0,0.0,60,0.00,,,0.00,WUHU216HW,2013-08-13 03:28:00,
2013-08-12 22:33:00,75.6,60.9,29.73,North,0,0.0,0.0,60,0.00,,,0.00,WUHU216HW,2013-08-13 03:33:00,
2013-08-12 22:43:00,75.2,60.5,29.74,North,0,0.0,0.0,60,0.00,,,0.00,WUHU216HW,2013-08-13 03:43:00,
2013-08-12 22:48:00,75.1,60.8,29.74,North,0,0.0,0.0,61,0.00,,,0.00,WUHU216HW,2013-08-13 03:48:00,
2013-08-12 22:53:00,74.9,60.6,29.73,North,0,0.0,0.0,61,0.00,,,0.00,WUHU216HW,2013-08-13 03:53:00,
2013-08-12 22:58:00,74.9,60.6,29.73,North,0,0.0,0.0,61,0.00,,,0.00,WUHU216HW,2013-08-13 03:58:00,
2013-08-12 23:04:00,74.9,61.0,29.73,North,0,0.0,0.0,62,0.00,,,0.00,WUHU216HW,2013-08-13 04:04:00,
2013-08-12 23:09:00,74.7,60.4,29.74,North,0,0.0,0.0,61,0.00,,,0.00,WUHU216HW,2013-08-13 04:09:00,
2013-08-12 23:14:00,74.7,60.4,29.74,North,0,0.0,0.0,61,0.00,,,0.00,WUHU216HW,2013-08-13 04:14:00,
2013-08-12 23:19:00,74.5,60.7,29.74,North,0,0.0,0.0,62,0.00,,,0.00,WUHU216HW,2013-08-13 04:19:00,
2013-08-12 23:24:00,74.2,60.3,29.74,North,0,0.0,0.0,62,0.00,,,0.00,WUHU216HW,2013-08-13 04:24:00,
2013-08-12 23:29:00,74.2,60.3,29.74,North,0,0.0,0.0,62,0.00,,,0.00,WUHU216HW,2013-08-13 04:29:00,
2013-08-12 23:34:00,74.0,60.1,29.74,North,0,0.0,0.0,62,0.00,,,0.00,WUHU216HW,2013-08-13 04:34:00,
2013-08-12 23:39:00,74.0,60.1,29.74,North,0,0.0,0.0,62,0.00,,,0.00,WUHU216HW,2013-08-13 04:39:00,
2013-08-12 23:44:00,73.8,60.0,29.74,North,0,0.0,0.0,62,0.00,,,0.00,WUHU216HW,2013-08-13 04:44:00,
2013-08-12 23:49:00,73.6,59.8,29.74,North,0,0.0,0.0,62,0.00,,,0.00,WUHU216HW,2013-08-13 04:49:00,
2013-08-12 23:54:00,73.4,59.6,29.74,North,0,0.0,0.0,62,0.00,,,0.00,WUHU216HW,2013-08-13 04:54:00,
2013-08-12 23:59:00,73.4,59.6,29.74,North,0,0.0,0.0,62,0.00,,,0.00,WUHU216HW,2013-08-13 04:59:00,